This demonstration page uses our WeatherBlox Daily Observations layout. Learn more.

Left ArrowRight Arrow

38.20091, -84.87328

Hourly Observations for September 20, 2016

Temp ( °F °C ) Dew Point ( °F °C ) Humidity (%) Winds ( mph kmh ) Pressure ( in mb ) Visibility ( mi km ) Precip ( " mm )
12:53 am 00:53 Clear 63 17.2 59 15 87 87 Calm 30.09 1019 10 16 0.00 0.00
1:53 am 01:53 Clear 62 16.7 59 15 90 90 NNW 3 6 30.09 1019 10 16 0.00 0.00
2:53 am 02:53 Clear 62 16.7 58 14.4 86 86 Calm 30.08 1019 10 16 0.00 0.00
3:53 am 03:53 Clear 61 16.1 57 13.9 87 87 NNW 3 6 30.09 1019 10 16 0.00 0.00
4:53 am 04:53 Clear 61 16.1 57 13.9 87 87 Calm 30.10 1019 10 16 0.00 0.00
5:53 am 05:53 Clear 60 15.6 56 13.3 86 86 Calm 30.11 1020 10 16 0.00 0.00
6:53 am 06:53 Clear 59 15 55 12.8 87 87 Calm 30.12 1020 10 16 0.00 0.00
7:53 am 07:53 Sunny 59 15 56 13.3 90 90 Calm 30.14 1021 9 14 0.00 0.00
8:53 am 08:53 Sunny 65 18.3 59 15 81 81 Calm 30.15 1021 10 16 0.00 0.00
9:53 am 09:53 Sunny 72 22.2 62 16.7 71 71 Calm 30.16 1021 10 16 0.00 0.00
10:53 am 10:53 Sunny 79 26.1 61 16.1 54 54 Calm 30.16 1022 10 16 0.00 0.00
11:53 am 11:53 Sunny 82 27.8 58 14.4 44 44 NE 6 9 30.15 1021 10 16 0.00 0.00
12:53 pm 12:53 Sunny 85 29.4 59 15 42 42 E 6 9 30.14 1021 10 16 0.00 0.00
1:53 pm 13:53 Sunny 86 30 55 12.8 35 35 VRB 6 9 30.13 1020 10 16 0.00 0.00
2:53 pm 14:53 Sunny 88 31.1 54 12.2 31 31 N 6 9 30.11 1020 10 16 0.00 0.00
3:53 pm 15:53 Sunny 87 30.6 54 12.2 32 32 Calm 30.10 1019 10 16 0.00 0.00
4:53 pm 16:53 Sunny 89 31.7 55 12.8 31 31 Calm 30.09 1019 10 16 0.00 0.00
5:53 pm 17:53 Sunny 87 30.6 54 12.2 32 32 ENE 7 11 30.09 1019 10 16 0.00 0.00
6:53 pm 18:53 Sunny 87 30.6 55 12.8 34 34 N 3 6 30.09 1019 10 16 0.00 0.00
7:53 pm 19:53 Clear 74 23.3 61 16.1 64 64 Calm 30.10 1019 10 16 0.00 0.00
8:53 pm 20:53 Clear 71 21.7 60 15.6 68 68 NNW 3 6 30.11 1020 10 16 0.00 0.00
9:53 pm 21:53 Clear 69 20.6 60 15.6 73 73 Calm 30.12 1020 10 16 0.00 0.00
10:53 pm 22:53 Clear 65 18.3 60 15.6 84 84 Calm 30.12 1020 10 16 0.00 0.00
11:53 pm 23:53 Clear 66 18.9 59 15 78 78 Calm 30.13 1020 10 16 0.00 0.00

Powered by AerisWeather